sat.trackr.live / text

‹ back to catalog

TJS-1

NORAD 40892 · 2015-046A

PAYLOAD ACTIVE UNKNOWN

§ Identity

Operator
Country
PRC
Launch date
2015-09-12
Launch site
XICLF
Launch vehicle
Mass (kg)
RCS (m²)
65.17

Purposes: comms

External: N2YO · Heavens-Above · Gunter

§ Orbital elements

Epoch: 2026-09-19T19:40:12.552672Z

Period
1,436.08 min
Inclination
0.5604°
Eccentricity
0.0003364
Mean motion
1.00273087 rev/d
Perigee alt
35,772.0 km
Apogee alt
35,800.4 km
Semi-major
42,164.4 km
B*
0.0000e+0
RAAN
83.9428°
Arg perigee
71.6571°
Mean anomaly
293.2140°
Rev number
4,052

§ Raw data

TJS-11 40892U 15046A   26262.81958973 -.00000160  00000+0  00000+0 0  99932 40892   0.5604  83.9428 0003364  71.6571 293.2140  1.00273087 40527

JSON: /api/v1/satellites/40892 · /tle

For live sub-satellite position, see the globe view (requires WebGL).

§ Visibility from observer

Set your observer location to see the next 7 days of passes ≥ 10°. The values pass through the URL so the page stays shareable.

No JS? Fill the form by hand. The geolocation button needs JavaScript.